Temp
12 12 12 12 12 12 12 12 12 12 11 11 11 11 11 11 11 11 10 10 10 10 10 10 10 10 10 10 10 10 10 10 11 11 11 11 10 10 10 10 10 10 10 10 10 9 9 9 9 9 9 8 9 9 9 9 8 8 8 8 8 8 8 7 7 7 7 7 7
12 12 12 12 12 12 12 12 12 11 11 11 11 11 11 11 11 11 10 10 10 10 10 10 10 11 11 10 10 10 10 10 10 11 10 10 10 10 10 10 10 10 10 10 9 9 9 9 9 9 9 9 9 9 8 8 8 8 8 8 8 8 7 7 7 7 7 7 7
12 12 12 12 12 12 12 11 11 11 11 11 11 11 11 10 10 10 10 10 10 10 10 10 11 11 11 11 10 10 10 10 10 10 10 10 10 10 10 10 10 10 10 10 9 9 9 9 9 9 9 9 8 8 8 8 8 8 8 8 7 7 7 7 7 7 7 7 7
12 12 12 12 12 12 12 11 11 11 11 11 11 11 11 10 10 10 10 11 10 10 10 10 11 11 11 11 11 11 11 11 11 10 10 10 10 10 10 10 10 10 10 9 9 9 9 9 9 9 9 8 8 8 8 8 8 8 8 7 7 7 7 7 7 7 7 7 6
12 12 12 12 12 12 11 11 11 11 11 11 11 11 10 10 10 10 10 10 10 10 10 10 10 10 10 10 10 11 11 11 10 10 10 10 10 10 10 10 9 9 9 9 9 9 9 9 9 9 9 8 8 8 8 8 8 8 7 7 7 7 7 7 7 7 7 7 7
12 12 12 12 11 11 11 11 11 11 11 11 11 11 10 10 10 10 10 10 10 10 10 10 10 10 10 10 10 10 10 10 10 10 10 10 10 10 9 9 9 9 9 9 9 9 9 9 9 8 8 8 8 8 8 8 8 7 7 7 7 7 7 7 7 7 7 7 7
12 12 12 11 11 11 11 11 11 11 11 11 11 10 10 10 10 10 10 10 10 10 10 10 10 10 10 10 10 10 10 10 10 10 10 9 9 9 9 9 9 9 9 9 9 9 9 8 8 8 8 8 8 8 8 8 7 7 7 7 7 7 7 7 7 7 7 6 6
12 12 12 11 11 11 11 11 11 11 11 10 10 10 10 10 10 10 10 10 10 10 10 10 10 10 10 10 10 10 10 10 10 10 9 9 9 9 9 9 9 8 8 9 9 9 8 8 8 8 8 8 8 8 8 8 8 7 7 7 7 7 7 6 6 6 6 6 6
12 12 11 11 11 11 11 11 11 11 10 10 10 10 10 10 10 10 10 10 10 10 11 10 10 10 10 10 10 10 10 10 10 10 10 9 9 9 9 9 9 9 9 8 8 8 8 8 8 8 8 8 8 8 8 8 7 7 7 7 7 6 6 6 6 6 6 6 6
12 12 11 11 11 11 11 11 11 11 10 10 10 10 10 10 10 10 10 10 10 11 11 11 10 10 10 10 10 10 10 10 10 9 9 9 9 9 9 9 9 9 8 8 8 8 8 8 8 8 8 7 7 8 8 7 7 7 7 6 6 6 6 6 6 6 6 6 6
12 12 11 11 11 11 11 11 11 10 10 10 10 10 10 10 10 10 10 10 10 10 10 10 10 10 10 10 10 10 10 10 9 9 9 9 9 9 9 9 8 8 8 8 8 8 8 8 8 7 7 7 7 7 7 7 7 6 6 6 6 6 6 6 6 6 6 6 5
12 11 11 11 11 11 11 11 11 11 10 11 10 10 10 10 10 10 10 10 10 10 10 10 10 10 10 10 10 10 10 9 9 9 9 9 9 9 9 8 8 8 8 8 8 8 8 8 7 7 7 7 7 7 7 7 6 6 6 6 6 6 6 6 6 6 6 5 5
12 11 11 11 11 11 11 11 11 11 11 11 11 11 10 10 10 10 10 10 10 10 10 10 10 10 10 10 10 10 9 9 9 9 9 9 9 8 8 8 8 8 8 8 8 8 7 7 7 7 7 7 7 7 6 6 6 6 6 6 6 6 6 6 6 6 6 5 5
11 11 11 11 11 11 11 11 11 11 11 11 11 11 11 11 10 10 10 10 10 10 10 10 10 10 10 10 10 9 9 8 8 8 8 8 8 8 8 8 8 8 7 7 7 7 7 7 7 7 7 7 7 6 6 6 6 6 6 6 6 6 6 6 6 6 6 5 5
11 11 11 11 11 11 11 11 11 11 11 11 10 10 11 11 11 10 10 9 10 10 10 10 10 10 10 9 9 9 8 8 8 8 8 8 8 8 8 7 7 7 7 7 7 7 7 7 7 7 7 6 6 6 6 6 6 6 6 6 6 6 6 6 6 6 6 5 5
11 11 11 11 11 11 10 10 10 10 10 11 10 10 10 11 11 10 10 9 10 10 10 10 10 9 9 9 9 8 8 8 8 8 8 8 7 7 7 7 7 7 7 7 7 7 7 7 7 6 6 6 6 6 6 6 6 6 6 6 6 6 6 6 6 6 5 5 5
11 11 11 11 11 10 10 10 10 10 10 11 10 10 10 10 10 10 9 9 9 10 10 9 9 9 9 9 9 9 8 8 8 8 8 7 7 7 7 7 7 7 7 7 7 7 6 6 6 6 6 6 6 6 6 6 6 6 6 6 6 6 6 6 6 6 5 5 5
11 11 11 11 11 10 10 10 10 10 10 10 10 10 10 10 10 10 9 9 9 9 9 9 9 9 8 8 8 8 8 8 8 8 7 7 7 7 7 7 7 6 6 6 6 6 6 6 6 6 6 6 6 6 6 6 6 6 6 6 6 6 6 6 6 5 5 5 5
11 11 11 11 11 10 10 10 10 10 10 10 10 9 9 10 10 10 10 9 9 9 9 9 9 8 8 8 8 8 8 8 8 7 7 7 7 7 7 6 6 6 6 6 6 6 6 6 6 6 6 6 6 6 6 6 6 6 6 6 6 6 6 6 5 5 5 5 4
11 11 11 11 11 10 10 10 10 10 10 10 9 9 9 10 10 10 10 9 9 9 9 9 9 9 9 8 8 8 8 7 7 7 7 7 7 7 6 6 6 6 6 6 6 6 6 6 6 6 6 6 6 6 6 6 6 6 6 6 6 6 6 5 5 5 4 4 4
11 11 11 11 11 11 10 10 10 10 10 9 9 9 9 10 10 10 10 9 9 9 9 9 9 9 9 9 8 8 8 7 7 7 7 7 7 7 6 6 6 6 6 6 6 6 6 6 6 6 6 6 6 6 6 6 6 6 6 6 6 5 5 5 5 4 4 4 3
11 11 11 11 11 11 10 10 10 10 10 9 9 9 10 10 10 10 9 9 9 9 9 9 9 8 8 8 8 8 7 7 7 7 7 7 7 7 6 6 6 6 6 6 6 6 6 6 6 6 6 6 6 7 6 6 6 6 6 6 5 5 5 5 4 4 4 3 3
11 11 11 11 10 10 10 10 10 10 10 9 9 10 10 10 10 9 9 9 9 9 9 9 8 8 8 8 8 8 7 7 7 7 7 7 7 6 6 6 6 6 6 6 6 6 6 6 6 6 6 7 7 7 6 6 6 6 6 5 5 5 4 4 4 4 3 3 3
11 11 11 10 10 10 10 10 10 10 10 10 10 10 10 10 10 9 9 9 9 9 9 8 8 8 7 7 7 7 7 7 7 7 7 7 7 6 6 6 6 6 6 6 6 6 6 6 6 6 6 6 6 6 6 6 6 6 5 5 5 4 4 4 4 3 3 3 3
11 11 11 10 10 10 10 10 10 10 10 10 10 10 10 10 10 10 9 9 9 9 8 8 8 8 7 7 7 7 7 7 7 7 7 7 7 6 6 6 6 6 6 6 6 6 6 6 6 6 6 6 6 6 6 6 6 5 5 5 4 4 4 4 3 3 3 3 2
11 11 11 10 10 10 10 10 10 10 10 10 10 10 10 10 10 9 9 9 9 9 8 8 8 8 8 8 8 7 7 7 7 7 7 7 7 7 6 6 6 6 6 7 7 7 7 7 6 6 6 6 6 6 6 6 5 5 5 4 4 4 4 3 3 3 3 2 2
11 11 11 10 10 10 10 10 10 10 10 10 10 10 10 10 9 9 9 9 9 9 9 8 8 8 8 8 8 7 7 7 7 7 7 7 7 6 6 6 6 7 7 7 7 7 7 7 6 6 6 6 6 6 5 5 5 5 4 4 4 4 3 3 3 3 2 2 2
11 11 11 10 10 10 10 10 10 10 10 10 10 10 10 9 9 9 9 9 9 9 9 9 8 8 8 8 7 7 7 7 7 7 7 7 6 6 6 7 7 7 7 7 7 7 7 7 6 6 6 6 6 5 5 5 5 4 4 4 4 3 3 3 3 2 2 2 1
11 11 11 10 10 10 10 10 10 10 10 10 10 10 10 9 9 9 9 9 9 9 9 9 8 8 8 8 7 7 7 7 7 7 7 7 6 6 6 7 7 7 7 7 7 7 7 7 6 6 6 6 5 5 5 5 4 4 4 3 3 3 3 3 2 2 2 1 1
11 11 11 10 10 10 10 10 10 10 10 10 10 10 10 9 9 9 9 9 9 9 9 9 8 8 8 7 7 7 7 7 7 7 7 6 6 6 6 6 7 7 7 7 7 7 7 6 6 6 6 5 5 5 4 4 4 4 3 3 3 3 3 3 2 2 2 1 1
11 11 11 10 10 10 10 10 10 10 10 10 10 10 9 9 9 9 9 9 9 9 9 8 8 8 8 7 7 7 7 7 7 7 6 6 6 6 6 6 7 7 7 7 7 7 6 6 6 6 5 5 5 4 4 4 4 4 3 3 3 3 3 2 2 2 1 1 0
11 11 11 10 10 10 10 10 10 10 10 10 10 9 9 9 9 9 9 9 9 9 8 8 8 8 7 7 7 7 7 7 7 6 6 6 6 6 7 7 7 7 7 7 7 6 6 6 6 5 5 5 4 4 4 4 4 3 3 3 3 2 2 2 2 1 1 1 0
11 11 11 10 10 10 10 10 10 10 10 10 9 9 9 9 9 9 9 9 9 8 8 8 8 8 8 7 7 7 7 7 7 6 6 6 7 7 7 7 7 7 7 7 7 6 6 6 5 5 5 4 4 4 4 4 3 3 3 3 2 2 2 2 2 1 1 0 0
11 11 11 10 10 10 10 10 10 10 10 9 9 9 9 9 9 9 9 9 8 8 8 8 8 7 7 7 7 7 7 7 7 7 7 7 7 7 7 7 7 7 7 7 6 6 6 5 5 5 4 4 4 4 4 4 3 3 3 3 2 2 2 2 1 1 1 0 0
11 11 11 10 10 10 10 10 10 10 10 9 9 9 9 10 9 9 9 9 8 8 8 8 7 7 7 7 7 7 7 7 7 7 7 7 7 7 7 7 7 7 6 6 6 6 5 5 5 4 4 4 4 4 4 3 3 3 3 2 2 2 2 2 1 1 1 0 -0
11 11 11 11 10 10 10 10 10 10 10 10 10 10 10 9 9 9 9 9 8 8 8 8 7 7 7 7 7 7 7 7 7 7 7 7 7 7 7 7 7 6 6 6 6 5 5 5 4 4 4 4 4 3 3 3 3 3 3 2 2 2 2 1 1 1 1 0 -0
11 11 11 11 11 10 10 10 10 10 10 10 10 10 10 9 9 9 9 9 9 8 8 8 8 7 7 7 7 7 7 7 7 7 7 7 7 7 7 7 6 6 6 6 5 5 5 4 4 4 4 4 3 3 3 3 3 2 2 2 2 2 1 1 1 1 0 -0 -0
11 11 11 11 11 11 10 10 10 10 10 10 10 10 10 10 9 9 9 9 9 9 8 8 8 8 7 7 7 7 7 7 7 7 7 7 6 6 6 6 6 6 6 5 5 5 4 4 4 4 4 3 3 3 3 2 2 2 2 2 2 1 1 1 1 1 0 -0 -1
11 11 11 11 11 11 11 11 11 11 11 10 10 10 10 10 9 9 9 9 9 9 8 8 8 8 7 7 7 7 7 7 7 7 6 6 6 6 6 6 6 6 5 5 5 4 4 4 4 3 3 3 3 3 2 2 2 2 2 2 1 1 1 1 1 1 0 -0 -1
11 11 11 11 11 11 11 11 11 11 11 11 10 10 10 10 10 9 9 9 8 8 8 8 8 8 8 7 7 7 7 7 7 7 6 6 6 6 6 6 6 5 5 5 4 4 4 4 3 3 3 3 3 2 2 2 2 2 1 1 1 1 1 1 1 1 0 0 -0
12 11 11 11 11 11 11 11 11 11 11 10 10 10 10 10 10 9 9 9 8 8 8 8 8 8 7 7 7 7 7 7 7 7 6 6 6 6 6 6 5 5 5 4 4 4 4 3 3 3 3 3 2 2 2 2 2 1 1 1 1 1 1 1 0 0 0 0 -0
Height
1507 1509 1510 1511 1512 1513 1514 1515 1516 1517 1518 1519 1519 1520 1521 1522 1522 1523 1524 1524 1525 1526 1526 1527 1527 1528 1528 1529 1529 1530 1530 1531 1531 1531 1531 1532 1532 1532 1532 1533 1533 1533 1533 1533 1533 1533 1533 1533 1532 1532 1532 1531 1531 1531 1530 1530 1529 1528 1527 1527 1526 1526 1525 1525 1524 1523 1522 1522 1521
1507 1508 1509 1510 1512 1513 1514 1515 1516 1516 1517 1518 1519 1520 1521 1522 1522 1523 1523 1524 1525 1525 1526 1527 1527 1527 1528 1528 1529 1529 1530 1530 1530 1531 1531 1532 1532 1532 1532 1532 1532 1532 1532 1533 1533 1532 1532 1532 1532 1531 1531 1531 1530 1530 1529 1529 1528 1527 1527 1526 1526 1525 1525 1524 1523 1522 1522 1521 1520
1506 1507 1509 1510 1511 1512 1513 1514 1515 1516 1517 1518 1519 1519 1520 1521 1522 1522 1523 1524 1524 1525 1525 1526 1526 1527 1527 1528 1528 1528 1529 1529 1530 1530 1531 1531 1532 1532 1532 1532 1532 1532 1532 1532 1532 1532 1532 1531 1531 1531 1530 1530 1529 1529 1528 1528 1527 1527 1526 1526 1525 1524 1524 1523 1522 1522 1521 1521 1520
1506 1507 1508 1509 1510 1511 1512 1513 1514 1515 1517 1517 1518 1519 1520 1520 1521 1522 1522 1523 1524 1524 1525 1525 1526 1526 1527 1527 1527 1528 1528 1529 1529 1530 1530 1531 1531 1531 1531 1531 1531 1531 1531 1531 1531 1531 1531 1530 1530 1530 1529 1529 1529 1528 1528 1527 1527 1526 1526 1525 1524 1524 1523 1522 1522 1521 1521 1520 1519
1505 1506 1507 1508 1509 1511 1512 1513 1514 1515 1516 1517 1518 1518 1519 1520 1520 1521 1522 1522 1523 1524 1525 1525 1525 1526 1527 1527 1527 1527 1528 1528 1529 1529 1529 1530 1530 1530 1530 1530 1530 1530 1531 1530 1530 1530 1530 1529 1529 1529 1529 1528 1528 1528 1527 1527 1527 1526 1525 1525 1524 1523 1522 1522 1521 1521 1520 1519 1519
1504 1506 1507 1508 1509 1510 1511 1512 1514 1515 1516 1517 1517 1517 1518 1519 1519 1520 1521 1522 1523 1524 1524 1524 1525 1526 1526 1527 1527 1527 1527 1528 1528 1528 1529 1529 1529 1529 1529 1529 1529 1530 1530 1529 1529 1529 1529 1529 1529 1528 1528 1528 1527 1527 1527 1527 1526 1525 1524 1524 1523 1522 1522 1521 1521 1520 1519 1519 1518
1504 1505 1507 1507 1509 1510 1511 1512 1513 1514 1515 1516 1516 1517 1517 1518 1519 1520 1521 1522 1522 1523 1523 1524 1524 1525 1526 1526 1526 1527 1527 1527 1528 1528 1528 1528 1529 1529 1529 1529 1529 1529 1529 1529 1528 1528 1528 1528 1528 1528 1527 1527 1527 1527 1526 1526 1525 1524 1523 1523 1522 1522 1521 1521 1520 1519 1518 1518 1517
1504 1505 1506 1507 1508 1509 1511 1512 1513 1514 1514 1515 1516 1516 1517 1517 1518 1519 1520 1521 1522 1522 1522 1523 1523 1524 1525 1525 1526 1526 1527 1527 1527 1528 1528 1528 1528 1528 1528 1528 1528 1528 1528 1528 1528 1528 1528 1527 1527 1527 1527 1527 1526 1526 1525 1525 1524 1523 1523 1522 1522 1521 1521 1520 1519 1518 1518 1517 1516
1503 1505 1506 1507 1508 1509 1510 1511 1512 1513 1513 1514 1515 1516 1516 1517 1518 1519 1520 1521 1521 1521 1522 1522 1522 1523 1524 1525 1525 1526 1526 1527 1527 1527 1527 1528 1528 1528 1527 1527 1527 1527 1527 1527 1527 1527 1527 1527 1527 1526 1526 1526 1525 1525 1524 1524 1523 1522 1522 1522 1521 1521 1520 1519 1518 1518 1517 1516 1515
1502 1504 1505 1507 1507 1509 1510 1511 1512 1512 1513 1514 1514 1515 1516 1517 1517 1518 1519 1520 1521 1521 1521 1522 1522 1523 1524 1524 1525 1525 1526 1526 1527 1527 1527 1527 1527 1527 1527 1527 1527 1527 1527 1527 1527 1527 1527 1526 1526 1526 1525 1525 1524 1524 1523 1523 1522 1522 1522 1521 1520 1520 1519 1518 1518 1517 1516 1516 1515
1502 1503 1505 1506 1507 1508 1509 1510 1511 1512 1512 1513 1513 1514 1515 1516 1517 1518 1519 1520 1520 1521 1521 1522 1522 1523 1523 1524 1524 1525 1525 1525 1526 1526 1526 1527 1527 1527 1527 1527 1527 1527 1527 1527 1526 1526 1526 1525 1525 1525 1525 1524 1523 1523 1523 1522 1522 1521 1521 1521 1520 1519 1519 1518 1517 1517 1516 1515 1514
1502 1503 1504 1505 1507 1507 1509 1510 1510 1511 1512 1512 1512 1513 1514 1515 1516 1517 1518 1519 1520 1520 1521 1522 1522 1522 1522 1523 1523 1524 1524 1525 1525 1526 1526 1526 1526 1526 1526 1526 1526 1526 1526 1526 1526 1525 1525 1525 1525 1524 1524 1523 1523 1522 1522 1522 1521 1521 1521 1520 1519 1519 1518 1517 1517 1516 1515 1514 1513
1501 1502 1504 1505 1506 1507 1508 1509 1510 1510 1511 1511 1512 1512 1514 1515 1515 1516 1517 1518 1519 1519 1520 1520 1521 1521 1522 1522 1523 1524 1524 1525 1525 1525 1525 1526 1526 1526 1526 1526 1526 1525 1525 1525 1525 1525 1525 1524 1524 1523 1523 1522 1522 1522 1522 1521 1521 1520 1520 1519 1519 1518 1517 1517 1516 1515 1514 1513 1512
1500 1502 1503 1504 1505 1507 1507 1508 1509 1509 1510 1510 1511 1512 1513 1514 1514 1515 1516 1517 1518 1518 1519 1519 1520 1521 1521 1522 1522 1523 1524 1524 1524 1525 1525 1525 1525 1525 1525 1525 1525 1525 1524 1524 1524 1524 1524 1523 1523 1523 1522 1522 1522 1522 1521 1521 1520 1520 1520 1519 1518 1518 1517 1516 1515 1515 1514 1513 1512
1500 1501 1502 1504 1505 1506 1507 1508 1508 1508 1509 1509 1511 1512 1513 1514 1514 1515 1516 1517 1517 1518 1518 1519 1519 1520 1521 1522 1522 1523 1523 1523 1524 1524 1524 1524 1524 1524 1524 1524 1524 1524 1524 1524 1524 1523 1523 1523 1522 1522 1522 1522 1521 1521 1521 1521 1520 1520 1519 1519 1518 1517 1517 1516 1515 1514 1513 1512 1511
1499 1500 1502 1503 1504 1505 1506 1507 1507 1507 1508 1509 1510 1511 1512 1513 1514 1515 1516 1517 1517 1517 1518 1518 1519 1520 1521 1521 1522 1522 1522 1523 1523 1523 1523 1523 1524 1524 1523 1523 1523 1523 1523 1523 1523 1522 1522 1522 1522 1522 1522 1521 1521 1521 1521 1520 1520 1519 1519 1518 1517 1517 1516 1515 1514 1513 1512 1512 1511
1498 1499 1501 1502 1503 1504 1504 1505 1506 1506 1507 1508 1510 1511 1512 1513 1514 1514 1515 1516 1517 1517 1518 1518 1519 1520 1520 1521 1521 1522 1522 1522 1522 1523 1523 1523 1523 1523 1523 1523 1523 1523 1522 1522 1522 1522 1522 1522 1522 1521 1521 1521 1521 1521 1520 1520 1519 1519 1518 1517 1517 1516 1515 1514 1513 1512 1512 1511 1510
1497 1498 1500 1501 1502 1502 1503 1504 1505 1506 1507 1508 1510 1511 1512 1512 1513 1514 1515 1515 1516 1517 1517 1518 1519 1519 1520 1520 1521 1521 1522 1522 1522 1522 1522 1522 1522 1522 1522 1522 1522 1522 1522 1522 1522 1521 1521 1521 1521 1521 1521 1521 1521 1520 1520 1519 1519 1518 1517 1517 1516 1515 1514 1513 1513 1512 1511 1511 1510
1496 1497 1498 1499 1500 1501 1502 1503 1504 1506 1507 1508 1509 1510 1511 1512 1512 1513 1514 1515 1516 1516 1517 1517 1518 1519 1519 1520 1520 1521 1521 1521 1522 1522 1522 1522 1522 1522 1522 1522 1521 1521 1521 1521 1521 1521 1521 1521 1521 1521 1521 1520 1520 1520 1519 1519 1518 1517 1517 1516 1515 1514 1514 1513 1512 1511 1511 1510 1510
1495 1496 1497 1497 1499 1500 1502 1503 1504 1506 1507 1508 1509 1510 1511 1511 1512 1512 1513 1514 1515 1516 1516 1517 1517 1518 1518 1519 1519 1520 1520 1521 1521 1521 1521 1521 1521 1521 1521 1521 1521 1521 1521 1521 1521 1521 1521 1521 1521 1521 1520 1520 1520 1519 1519 1518 1517 1517 1516 1515 1515 1514 1513 1512 1512 1511 1510 1510 1509
1493 1494 1495 1497 1498 1500 1501 1502 1504 1505 1506 1507 1508 1509 1510 1511 1511 1512 1512 1513 1514 1515 1516 1516 1517 1517 1518 1518 1519 1519 1519 1520 1520 1520 1520 1520 1521 1521 1521 1521 1521 1521 1521 1521 1521 1520 1520 1520 1520 1520 1520 1519 1519 1518 1518 1517 1517 1516 1515 1515 1514 1513 1512 1512 1511 1511 1510 1509 1509
1492 1493 1495 1496 1498 1499 1501 1502 1503 1505 1506 1507 1507 1508 1509 1510 1511 1512 1512 1513 1514 1514 1515 1516 1516 1517 1517 1518 1518 1518 1519 1519 1519 1519 1519 1520 1520 1520 1520 1520 1520 1520 1520 1520 1520 1520 1520 1520 1520 1520 1519 1519 1518 1518 1517 1517 1516 1516 1515 1514 1513 1513 1512 1511 1511 1510 1509 1509 1508
1491 1493 1494 1496 1497 1499 1500 1502 1502 1504 1505 1506 1507 1508 1509 1510 1511 1511 1512 1512 1513 1514 1515 1515 1516 1516 1517 1517 1517 1517 1518 1518 1518 1518 1519 1519 1520 1520 1520 1520 1520 1520 1520 1520 1520 1520 1520 1520 1519 1519 1518 1518 1518 1517 1517 1516 1516 1515 1514 1514 1513 1512 1512 1511 1510 1509 1509 1508 1507
1491 1492 1494 1495 1497 1498 1500 1501 1502 1503 1504 1505 1506 1507 1508 1509 1510 1511 1511 1512 1513 1513 1514 1515 1515 1516 1516 1516 1517 1517 1517 1518 1518 1518 1518 1519 1519 1519 1519 1520 1520 1520 1520 1520 1520 1520 1520 1519 1519 1518 1518 1517 1517 1517 1516 1516 1515 1515 1514 1513 1512 1512 1511 1510 1509 1509 1508 1507 1507
1490 1492 1493 1495 1496 1497 1499 1500 1501 1502 1503 1505 1506 1507 1507 1508 1509 1510 1511 1512 1512 1513 1513 1514 1514 1515 1515 1516 1516 1516 1517 1517 1517 1518 1518 1518 1519 1519 1519 1519 1519 1519 1520 1520 1520 1520 1519 1519 1518 1518 1517 1517 1517 1516 1516 1515 1515 1514 1513 1513 1512 1511 1510 1509 1509 1508 1507 1507 1507
1489 1491 1492 1494 1496 1497 1498 1499 1501 1502 1503 1504 1505 1506 1507 1508 1509 1509 1510 1511 1512 1512 1513 1513 1514 1514 1515 1515 1515 1516 1516 1517 1517 1517 1518 1518 1518 1519 1519 1519 1519 1519 1519 1519 1519 1519 1519 1518 1518 1517 1517 1516 1516 1515 1515 1515 1514 1513 1513 1512 1511 1511 1510 1509 1508 1508 1507 1507 1506
1489 1490 1492 1493 1495 1496 1497 1499 1500 1502 1502 1503 1504 1505 1506 1507 1508 1509 1510 1510 1511 1512 1512 1512 1513 1513 1514 1514 1515 1515 1516 1516 1517 1517 1517 1518 1518 1518 1518 1519 1519 1519 1519 1519 1519 1519 1518 1518 1517 1517 1517 1516 1516 1515 1515 1514 1514 1513 1512 1512 1511 1510 1509 1508 1508 1507 1507 1506 1506
1488 1490 1491 1493 1494 1496 1497 1498 1500 1501 1502 1503 1504 1505 1506 1507 1507 1508 1509 1510 1510 1511 1511 1512 1512 1513 1513 1514 1514 1515 1516 1516 1516 1517 1517 1517 1518 1518 1518 1518 1518 1518 1518 1518 1518 1518 1518 1517 1517 1517 1516 1516 1515 1515 1514 1514 1513 1512 1512 1511 1510 1510 1509 1508 1507 1507 1506 1506 1505
1487 1489 1490 1492 1493 1495 1496 1498 1499 1500 1501 1502 1503 1504 1505 1506 1507 1507 1508 1509 1509 1510 1511 1511 1512 1512 1513 1513 1514 1515 1515 1516 1516 1517 1517 1517 1517 1517 1517 1518 1518 1518 1518 1518 1518 1517 1517 1517 1517 1516 1516 1515 1515 1514 1514 1513 1513 1512 1512 1511 1510 1509 1509 1508 1507 1507 1506 1505 1505
1487 1488 1490 1492 1493 1494 1496 1497 1498 1499 1500 1502 1502 1503 1504 1505 1506 1507 1507 1508 1509 1509 1510 1511 1511 1512 1512 1513 1514 1514 1515 1515 1516 1516 1517 1517 1517 1517 1517 1517 1517 1517 1517 1517 1517 1517 1517 1516 1516 1516 1515 1515 1514 1514 1514 1513 1512 1512 1511 1510 1510 1509 1508 1507 1507 1506 1506 1505 1504
1486 1488 1489 1491 1492 1494 1495 1496 1497 1499 1500 1501 1502 1503 1504 1505 1505 1506 1507 1507 1508 1509 1510 1510 1511 1512 1512 1513 1513 1514 1515 1515 1515 1516 1516 1517 1517 1517 1517 1517 1517 1517 1517 1517 1517 1517 1516 1516 1516 1515 1515 1515 1514 1514 1513 1513 1512 1512 1511 1510 1509 1509 1508 1507 1507 1506 1505 1505 1504
1486 1487 1489 1490 1492 1493 1494 1496 1497 1498 1499 1500 1501 1502 1503 1504 1505 1506 1506 1507 1508 1508 1509 1510 1510 1511 1512 1512 1513 1514 1514 1515 1515 1516 1516 1516 1516 1516 1516 1516 1516 1516 1516 1516 1516 1516 1516 1515 1515 1515 1515 1514 1514 1513 1513 1512 1512 1511 1511 1510 1509 1508 1508 1507 1507 1506 1505 1505 1504
1485 1487 1488 1490 1491 1492 1493 1495 1496 1497 1498 1499 1500 1502 1502 1503 1504 1505 1506 1507 1507 1508 1509 1509 1510 1511 1512 1512 1513 1513 1514 1514 1515 1515 1516 1516 1516 1516 1516 1516 1516 1516 1516 1516 1516 1515 1515 1515 1515 1515 1514 1514 1514 1513 1513 1512 1512 1511 1510 1510 1509 1508 1507 1507 1507 1506 1505 1505 1504
1484 1486 1487 1489 1490 1491 1492 1494 1495 1496 1497 1498 1500 1501 1502 1502 1503 1504 1505 1506 1507 1507 1508 1509 1510 1511 1511 1512 1512 1513 1514 1514 1515 1515 1515 1515 1515 1515 1515 1515 1515 1515 1515 1515 1515 1515 1515 1515 1514 1514 1514 1514 1513 1513 1512 1512 1511 1511 1510 1509 1509 1508 1507 1507 1507 1506 1505 1505 1504
1483 1484 1486 1487 1489 1490 1492 1493 1494 1495 1496 1497 1499 1500 1501 1502 1503 1503 1504 1505 1506 1507 1507 1508 1509 1510 1511 1512 1512 1513 1514 1514 1514 1515 1515 1515 1515 1515 1515 1514 1514 1515 1515 1515 1514 1514 1514 1514 1514 1514 1513 1513 1513 1512 1512 1511 1511 1510 1510 1509 1509 1508 1507 1507 1506 1506 1505 1504 1504
1482 1483 1485 1486 1487 1489 1490 1492 1493 1494 1495 1497 1498 1499 1500 1501 1502 1503 1504 1504 1505 1506 1507 1508 1509 1510 1511 1511 1512 1513 1513 1514 1514 1514 1514 1514 1514 1514 1514 1514 1514 1514 1514 1514 1514 1514 1514 1514 1514 1513 1513 1513 1512 1512 1511 1511 1510 1510 1509 1509 1508 1508 1507 1507 1506 1506 1505 1504 1504
1481 1482 1483 1485 1486 1488 1489 1491 1492 1493 1494 1496 1497 1498 1499 1500 1501 1502 1503 1504 1504 1505 1506 1507 1508 1509 1510 1511 1512 1512 1513 1513 1513 1513 1513 1513 1513 1513 1513 1513 1513 1513 1513 1513 1513 1513 1513 1513 1513 1513 1512 1512 1512 1511 1511 1510 1510 1510 1509 1509 1508 1507 1507 1507 1506 1506 1505 1504 1504
1480 1481 1482 1484 1485 1487 1488 1490 1491 1492 1493 1495 1496 1497 1498 1499 1500 1501 1502 1503 1504 1505 1506 1507 1508 1509 1510 1511 1511 1512 1512 1512 1513 1513 1513 1513 1513 1513 1513 1513 1513 1513 1513 1513 1513 1513 1513 1513 1513 1512 1512 1512 1511 1511 1511 1510 1510 1509 1509 1508 1508 1507 1507 1507 1506 1506 1505 1505 1504
1479 1480 1482 1483 1484 1486 1487 1489 1490 1492 1493 1494 1495 1497 1498 1499 1500 1501 1502 1503 1504 1505 1506 1507 1508 1509 1509 1510 1511 1511 1512 1512 1512 1512 1512 1512 1512 1512 1512 1512 1512 1512 1512 1512 1512 1512 1512 1512 1512 1512 1512 1511 1511 1511 1510 1510 1510 1509 1509 1508 1508 1507 1507 1507 1506 1506 1505 1505 1504
1478 1479 1481 1482 1484 1485 1487 1488 1489 1491 1492 1493 1495 1496 1497 1498 1499 1500 1501 1502 1503 1505 1506 1507 1507 1508 1509 1510 1510 1511 1511 1511 1512 1512 1512 1512 1512 1512 1512 1512 1512 1512 1512 1512 1512 1512 1512 1512 1512 1512 1511 1511 1511 1510 1510 1510 1509 1509 1508 1508 1508 1507 1507 1507 1506 1506 1505 1505 1504
1477 1479 1480 1482 1483 1485 1486 1487 1489 1490 1492 1493 1494 1495 1496 1497 1498 1499 1500 1502 1502 1504 1505 1506 1507 1508 1508 1509 1510 1510 1510 1511 1511 1511 1511 1511 1511 1511 1511 1511 1511 1512 1512 1512 1512 1512 1512 1512 1511 1511 1511 1511 1510 1510 1510 1510 1509 1509 1508 1508 1507 1507 1507 1506 1506 1506 1505 1505 1504
Wind_Speed
21 21 20 20 19 19 19 19 18 18 18 18 18 17 16 15 14 14 14 13 12 11 9 9 10 11 12 13 13 14 15 17 18 19 19 19 19 18 18 18 18 19 19 18 18 18 18 17 14 11 11 12 13 14 15 16 16 16 16 16 16 16 17 18 18 18 18 18 17
22 21 20 20 19 19 18 18 18 17 17 17 17 16 15 14 14 13 13 13 12 10 9 10 11 12 13 13 14 15 16 17 18 18 18 17 17 17 17 18 18 18 17 17 16 16 15 13 11 11 12 13 14 15 16 16 16 15 15 16 16 17 18 18 18 18 17 16 15
22 21 21 20 20 19 18 18 18 18 17 16 16 16 15 14 13 13 13 13 12 10 10 11 12 13 13 13 14 15 16 17 17 17 16 16 16 16 17 17 16 16 15 14 13 12 11 11 12 12 13 14 14 15 15 16 16 16 16 16 17 18 18 17 16 15 14 13 13
22 22 22 21 20 19 18 18 18 18 17 16 16 16 15 14 13 12 13 13 12 11 11 12 12 12 13 13 14 15 16 16 16 15 16 16 16 16 15 14 13 12 11 11 11 11 12 12 12 13 13 14 15 15 15 16 16 16 17 17 18 18 17 15 14 12 12 11 11
23 23 22 21 20 18 18 17 18 18 17 17 16 16 15 14 13 13 13 13 12 11 11 12 12 12 12 13 14 15 15 15 15 15 15 15 14 13 11 10 10 10 10 11 11 12 12 12 12 13 14 15 15 15 16 16 16 17 17 17 17 15 14 12 11 11 10 10 11
23 23 22 21 19 18 17 17 17 17 17 17 17 16 16 15 15 14 13 13 12 12 13 13 13 12 12 12 13 14 15 15 15 14 13 12 11 10 10 10 11 12 12 11 11 11 11 12 13 14 15 15 15 15 16 16 16 16 16 15 14 13 11 10 10 10 11 12 13
23 23 22 20 19 19 18 18 17 17 17 17 17 17 17 16 16 15 14 13 14 15 15 14 13 12 12 13 14 14 14 14 13 11 10 9 9 10 11 13 13 12 11 10 10 11 12 13 13 14 14 15 15 15 15 15 15 15 14 13 12 11 10 10 11 11 12 14 15
23 22 21 20 20 19 19 18 18 18 18 18 18 18 17 17 16 15 14 14 16 18 18 16 14 13 13 13 13 13 13 12 10 9 8 8 9 11 12 13 12 10 9 10 10 12 13 13 13 13 13 13 14 14 15 15 14 13 12 11 10 10 10 11 12 13 14 15 17
23 22 21 20 20 19 19 18 18 18 19 19 19 18 18 17 17 16 14 14 16 18 19 17 15 13 12 12 12 12 11 11 10 10 10 10 10 10 10 9 8 8 9 10 12 13 13 13 13 12 12 13 14 14 14 13 12 11 10 10 10 10 11 12 13 14 15 17 18
23 23 22 21 20 19 19 18 18 19 19 19 19 18 18 17 17 15 14 13 15 16 15 14 12 12 12 12 12 12 11 11 11 10 9 8 8 8 8 8 7 8 10 12 13 13 13 12 11 12 13 14 14 13 12 11 10 9 9 9 10 11 12 13 14 15 16 17 18
23 23 22 21 20 19 18 19 19 20 20 20 20 19 18 17 17 16 15 14 14 14 13 13 13 13 13 13 13 12 11 10 9 9 8 9 9 9 9 9 11 12 13 13 13 13 12 12 12 13 14 14 13 11 10 9 8 8 9 9 10 11 12 13 15 16 17 18 18
23 23 22 21 19 19 19 19 20 21 22 22 22 20 18 17 18 18 17 15 14 14 14 15 16 15 15 14 12 11 10 10 10 10 9 10 10 10 11 12 13 13 13 13 13 13 13 13 14 14 13 12 10 9 8 8 8 8 9 10 11 12 13 14 15 16 17 18 18
23 22 21 20 20 19 20 20 21 22 22 23 22 20 19 19 19 19 17 14 14 15 17 17 17 16 15 14 12 11 10 11 11 11 11 11 11 11 11 12 12 12 12 12 12 13 13 13 13 12 10 9 8 8 7 8 8 9 9 10 12 13 14 15 16 17 17 18 18
23 22 21 21 21 21 21 21 22 22 23 23 22 20 19 20 19 17 15 13 14 16 18 18 17 16 15 14 12 11 11 12 12 12 12 11 10 10 10 11 11 11 12 12 13 13 12 11 10 9 8 7 7 7 7 8 8 9 10 11 13 14 15 16 16 17 17 17 17
23 23 22 22 22 22 22 22 23 24 24 23 22 20 19 19 18 16 14 13 15 17 18 17 17 16 15 14 12 12 12 12 12 11 10 9 9 9 10 11 12 12 13 13 12 11 10 8 7 7 6 6 7 7 7 8 9 10 11 12 13 14 15 16 16 16 16 16 16
24 23 23 23 24 24 24 24 25 25 25 24 22 20 19 18 17 16 15 14 15 17 17 17 16 15 15 14 13 13 12 11 11 10 9 8 8 9 11 12 12 13 12 11 9 8 7 6 6 6 6 6 6 7 8 8 10 11 12 13 14 15 15 15 15 15 15 15 15
25 24 24 25 25 26 26 26 26 26 25 23 22 20 19 19 19 18 16 15 16 16 17 16 16 15 15 14 14 13 12 11 10 9 9 8 9 10 11 12 12 11 9 8 7 6 5 5 5 6 6 6 7 7 8 9 10 12 13 13 14 14 14 14 14 14 14 14 14
26 25 26 27 28 28 27 27 26 25 24 23 21 19 19 20 21 20 18 17 16 16 16 16 16 15 15 14 13 12 11 11 10 9 9 9 10 10 10 10 9 8 7 6 6 5 5 5 5 5 6 6 7 8 9 10 11 12 13 13 13 14 13 13 13 13 13 13 13
27 27 28 29 30 29 28 27 26 25 23 22 20 19 20 21 23 22 20 17 16 16 15 15 14 13 13 13 13 12 11 10 9 9 10 10 10 9 9 8 7 6 5 5 5 5 5 5 5 5 6 7 8 9 10 11 12 12 13 13 13 12 12 12 12 11 11 12 11
28 29 30 31 31 30 28 26 25 24 23 21 20 20 21 23 23 22 19 17 15 14 14 13 12 12 12 13 12 12 11 10 10 10 11 11 10 9 8 7 6 5 5 5 5 5 5 5 5 6 6 8 9 10 11 12 12 12 12 12 11 11 11 10 10 10 11 11 11
30 31 32 32 31 29 28 26 25 23 22 21 20 20 22 23 23 21 18 16 15 14 13 12 12 12 12 12 12 12 11 11 11 11 11 10 9 8 7 6 5 5 5 5 4 4 4 5 5 6 8 9 10 11 11 11 11 11 11 10 10 9 9 9 9 10 10 10 10
32 32 32 31 30 29 27 26 24 23 22 21 21 21 22 23 22 20 18 16 15 14 13 13 12 12 11 12 12 11 11 11 11 10 10 8 7 7 6 5 5 5 5 4 4 4 5 5 6 8 9 10 10 11 10 10 10 10 9 9 9 8 8 9 9 9 10 10 10
33 33 32 31 29 28 27 26 25 24 23 22 22 22 23 23 22 20 18 17 16 14 14 13 12 12 11 12 12 11 10 10 11 10 9 8 7 6 6 5 5 5 5 4 4 4 5 6 8 9 10 10 10 10 10 9 9 8 8 8 8 8 8 8 9 9 10 10 10
33 33 32 31 29 28 27 26 25 24 24 24 24 24 23 23 21 20 18 17 15 14 14 13 12 12 12 12 11 10 9 10 10 10 9 8 7 7 6 5 5 5 5 4 4 5 6 7 9 9 10 10 9 9 8 8 7 7 7 7 7 7 8 8 9 9 10 10 11
34 33 32 31 29 28 27 26 26 26 25 25 24 24 23 22 21 19 18 16 15 14 14 13 13 12 12 12 11 10 9 9 10 10 9 8 7 7 6 6 5 5 5 5 5 6 7 8 9 9 9 9 8 8 7 7 6 6 6 6 7 7 8 8 9 9 10 10 11
33 33 32 30 29 28 27 27 26 26 25 25 24 23 22 21 20 19 17 16 15 15 14 13 13 13 12 12 11 9 9 9 9 9 9 8 8 7 6 6 5 5 5 5 6 6 7 8 8 8 8 7 7 6 6 6 6 6 6 6 7 7 8 8 9 10 10 11 11
34 33 31 30 29 28 27 27 26 26 25 24 23 23 22 21 20 19 17 16 15 15 14 13 13 13 12 11 10 9 9 9 9 9 9 8 7 7 6 6 5 5 5 6 6 7 7 7 7 7 6 6 5 5 5 5 5 6 6 6 6 7 7 8 9 10 11 11 11
34 33 31 30 29 28 28 27 26 25 25 24 23 22 22 21 20 18 17 16 16 15 14 13 13 12 11 11 10 9 9 9 9 9 8 8 7 7 6 6 6 6 6 6 6 6 6 6 6 5 5 4 4 4 4 4 5 5 6 6 6 7 7 8 9 10 11 11 12
34 33 32 30 29 29 28 27 27 26 25 24 23 22 21 20 19 18 17 16 16 15 14 13 12 12 11 10 10 9 9 9 9 9 8 8 7 7 6 6 6 6 7 7 6 5 5 5 4 4 3 3 3 3 4 4 5 5 5 6 6 6 7 8 9 10 11 11 12
34 33 32 30 30 29 28 28 27 26 25 24 23 22 21 20 19 18 17 16 15 14 13 12 12 11 11 11 10 10 10 10 9 9 8 8 7 7 6 6 7 7 7 6 5 4 4 4 3 3 2 2 2 3 3 4 4 5 5 5 6 7 7 8 9 10 11 11 12
33 33 31 31 30 29 28 28 27 27 26 25 24 22 21 20 19 18 17 16 15 13 12 12 11 11 11 11 11 11 10 10 10 9 8 8 7 7 7 7 7 7 6 5 4 3 3 2 2 1 1 1 2 2 3 3 4 4 5 5 6 7 7 8 9 10 11 11 11
33 32 31 30 30 29 29 28 27 27 26 25 24 22 21 20 19 18 17 15 14 13 12 12 12 12 12 12 11 11 11 10 10 9 9 8 8 7 7 7 7 6 5 4 3 3 2 1 1 1 0 1 1 2 2 3 4 4 5 5 6 7 8 8 9 10 10 10 11
33 32 31 30 30 29 29 28 27 27 26 25 24 23 21 20 19 18 16 15 14 13 13 12 12 12 12 12 12 11 11 11 10 9 9 8 8 7 7 7 6 6 5 4 3 2 1 1 0 0 0 1 1 2 2 3 4 4 5 5 6 7 7 8 9 9 10 10 10
32 32 31 30 30 29 29 28 27 27 26 25 24 23 21 20 19 18 17 15 14 14 13 12 12 12 12 11 11 11 11 11 10 10 9 8 8 7 7 6 6 5 4 3 2 2 1 1 0 0 1 1 2 2 3 3 4 4 5 5 6 7 7 8 9 9 9 10 9
32 32 31 30 30 29 29 28 28 27 26 25 24 23 21 20 19 18 17 16 15 15 14 14 13 13 13 12 12 12 11 11 10 9 9 8 7 7 6 6 5 5 4 3 2 1 1 1 0 0 1 1 2 2 3 3 4 5 5 6 6 7 8 8 9 9 9 9 9
32 31 31 30 30 29 29 28 28 27 26 25 24 23 22 20 19 18 17 16 16 16 16 15 15 15 14 14 13 13 12 11 10 9 8 8 7 6 6 5 5 4 3 2 2 1 1 1 1 1 1 2 2 2 3 4 4 5 5 6 7 7 8 9 9 9 9 9 9
32 31 31 31 30 30 29 29 28 27 26 25 24 23 22 21 19 19 18 17 17 17 16 16 16 16 15 15 14 13 12 11 10 9 8 7 7 6 6 5 5 4 3 2 2 2 1 1 1 1 1 2 2 3 3 4 4 5 5 6 7 7 8 9 9 9 9 9 8
32 31 31 30 30 30 29 28 28 27 26 25 24 22 21 20 20 19 18 17 17 17 17 16 16 16 15 15 14 13 12 11 10 9 8 7 7 6 6 5 4 4 3 3 2 2 1 1 1 1 2 2 2 3 3 4 4 5 5 6 7 7 8 8 9 9 9 8 8
32 32 31 30 30 30 29 28 28 27 26 24 23 22 21 20 20 19 18 17 16 16 16 16 16 16 15 14 14 12 11 10 10 9 8 7 7 6 5 5 4 4 3 3 3 2 2 1 1 1 2 2 2 3 3 4 4 5 5 6 7 7 8 8 8 9 8 8 8
32 32 31 30 30 29 29 28 27 26 25 24 23 22 21 20 19 19 18 18 17 16 16 16 16 15 15 14 13 12 11 10 10 9 8 8 7 6 5 5 5 4 4 3 3 3 2 2 2 2 2 2 2 3 3 3 4 5 5 6 7 7 8 8 8 8 8 8 8
32 32 31 30 29 29 28 27 27 25 24 23 22 21 21 20 20 19 19 19 18 18 17 16 16 15 14 14 13 12 11 10 10 9 8 8 7 6 5 5 5 5 4 4 3 3 3 2 2 2 2 2 2 2 3 3 4 5 5 6 7 7 7 8 8 8 8 8 7
Wind_Direction
225 225 225 225 225 226 227 228 228 228 228 228 228 230 231 233 234 233 234 237 241 242 238 232 231 233 233 232 232 232 233 234 236 238 240 243 246 249 253 255 258 260 262 265 268 268 265 260 260 270 286 299 304 304 301 299 301 303 304 304 304 304 304 304 304 304 306 307 308
223 223 224 224 225 225 225 225 223 222 222 224 226 227 227 228 230 231 234 235 237 234 229 228 230 230 229 228 227 228 229 231 233 235 238 241 244 246 249 250 252 254 256 258 258 257 255 258 273 290 301 304 303 302 301 301 302 302 302 301 302 302 303 303 305 307 308 310 311
220 221 222 223 224 224 223 221 218 217 218 222 224 225 224 225 227 229 231 231 230 226 224 226 228 227 225 224 224 225 226 228 230 232 235 238 240 241 243 243 243 244 245 246 248 252 262 278 291 299 302 302 302 301 300 300 301 301 300 300 301 302 303 305 307 310 312 313 315
218 219 220 222 223 222 221 218 215 215 216 220 222 224 224 224 225 226 226 225 224 221 220 224 224 223 222 223 224 224 225 225 227 229 232 233 235 235 234 233 234 236 242 249 260 272 283 292 297 300 301 301 301 300 299 299 298 298 298 299 300 302 305 308 311 313 315 317 317
216 218 219 221 222 222 220 218 215 214 214 217 220 221 221 222 221 219 219 219 218 217 218 221 222 223 224 226 226 225 224 223 224 225 226 226 226 226 227 231 241 252 264 274 282 288 292 296 298 300 301 301 300 298 297 295 295 296 297 299 301 303 306 310 314 317 319 320 320
215 216 218 220 220 220 219 218 216 214 213 214 216 216 217 217 216 214 213 213 214 215 218 221 222 225 226 227 226 224 221 219 218 217 218 221 226 235 247 259 267 274 280 287 291 293 294 295 296 298 298 298 296 294 292 291 293 296 298 299 301 304 308 313 317 321 323 324 325
214 215 216 217 218 217 217 216 216 214 212 211 212 213 214 215 214 211 210 211 213 216 219 222 224 225 226 226 223 219 216 213 213 215 222 234 249 263 271 275 278 281 284 287 290 290 290 290 291 292 292 291 288 287 289 291 295 297 298 299 303 309 315 319 323 326 328 329 330
214 215 215 215 216 216 215 215 213 211 209 208 209 213 215 215 213 210 209 212 216 218 217 216 216 217 219 219 218 215 215 217 224 235 250 263 270 273 274 274 276 278 280 282 283 284 285 285 285 284 283 283 285 287 292 295 298 299 301 304 310 317 322 326 329 331 332 332 332
213 213 214 214 215 215 214 212 209 207 206 206 209 214 216 215 212 210 210 215 220 219 215 209 206 208 211 215 218 222 228 236 247 257 266 270 265 257 251 250 254 264 275 280 283 283 282 279 276 277 279 284 288 292 295 298 300 303 307 312 318 323 326 329 331 332 332 331 330
210 211 212 213 214 214 212 209 207 206 207 208 211 214 216 215 214 213 213 216 221 221 218 212 211 213 218 221 225 231 237 242 245 248 251 248 240 233 231 237 253 269 279 282 282 281 277 273 273 277 284 289 292 295 298 301 305 308 313 318 322 326 328 329 330 330 329 328 327
209 209 210 211 211 210 208 205 206 207 209 210 211 213 216 217 218 217 216 216 219 223 226 227 229 229 228 227 226 227 226 222 219 220 223 225 231 238 248 261 271 277 280 280 278 276 273 274 278 284 290 293 296 298 302 306 311 314 318 321 324 326 327 328 327 327 326 325 324
208 208 208 208 207 205 204 203 206 208 208 208 208 211 216 220 219 217 215 216 219 223 227 229 229 227 224 219 215 212 209 207 208 213 222 232 244 255 265 271 274 274 273 272 271 272 274 278 285 290 293 296 299 303 307 312 316 319 321 323 325 326 326 325 325 324 323 323 322
206 206 205 203 202 201 200 202 205 207 207 207 208 212 217 219 215 212 212 216 221 224 223 220 217 213 209 207 207 208 212 218 227 235 244 253 262 268 272 272 269 265 263 265 268 273 279 285 289 292 295 298 302 307 312 316 319 321 323 323 324 323 323 323 322 322 322 321 321
204 203 201 199 197 197 198 201 204 207 208 209 210 214 216 212 208 206 209 218 224 221 213 205 200 199 200 204 212 222 231 239 246 254 262 269 273 272 268 262 259 258 263 269 275 280 285 289 291 293 296 301 305 310 314 317 320 322 322 322 321 321 321 321 320 320 320 321 321
202 201 199 196 195 195 197 200 203 206 208 209 210 212 212 208 204 205 212 220 219 210 200 194 193 196 202 211 223 235 244 250 256 265 273 279 275 265 258 255 258 264 272 279 282 285 288 290 292 296 300 304 308 312 315 317 319 320 320 320 319 319 318 318 318 319 320 321 322
200 198 196 195 194 194 196 200 203 206 208 208 208 209 209 208 208 210 214 216 211 202 195 194 198 204 211 219 230 238 245 251 259 269 275 275 265 256 254 259 268 276 282 286 288 289 289 291 294 297 301 305 309 312 314 316 316 317 316 316 316 316 316 316 317 319 320 323 325
198 196 196 195 195 195 197 200 204 207 208 207 207 207 209 210 211 212 212 211 207 203 202 205 211 216 221 226 233 238 243 248 255 263 264 258 253 255 262 271 280 287 290 291 291 291 291 292 294 298 301 304 308 311 312 314 314 313 314 314 314 314 315 316 319 321 323 327 330
196 195 196 197 198 198 199 200 203 206 208 208 207 206 207 209 210 210 210 210 210 211 213 216 220 225 229 234 238 242 244 246 251 254 252 249 254 264 275 285 290 292 292 291 290 289 289 289 291 295 299 302 306 308 310 310 311 312 313 313 314 315 317 319 322 325 328 332 337
195 195 196 198 199 200 201 201 203 205 206 207 206 205 206 207 205 205 207 211 214 217 219 223 226 231 235 240 243 245 246 247 249 250 251 254 264 276 286 290 290 288 285 285 284 284 284 285 288 292 296 301 304 306 308 309 311 312 313 314 316 318 321 324 327 330 335 339 343
195 196 198 200 200 200 201 201 203 204 204 204 203 204 204 204 202 203 208 216 220 222 224 228 232 235 236 239 241 244 246 248 247 248 253 262 273 282 287 287 282 279 276 276 276 277 278 282 286 290 296 300 303 306 308 310 312 313 315 317 319 322 326 330 334 337 341 345 348
196 197 199 201 201 200 200 201 202 203 203 202 201 202 202 201 200 204 212 221 224 225 226 230 234 236 236 238 240 242 244 246 247 250 257 267 275 279 280 277 273 269 268 267 268 269 273 279 285 292 297 301 304 307 310 312 313 316 318 320 323 328 332 336 340 342 346 348 351
196 198 200 201 201 200 200 201 202 202 202 200 199 199 200 200 202 207 214 221 222 223 224 227 231 235 237 240 243 244 243 243 247 253 261 267 270 271 270 266 263 260 258 258 260 265 273 281 289 295 299 303 305 308 310 313 316 319 322 325 329 334 339 342 345 347 349 351 353
196 198 199 200 200 200 200 201 202 202 200 198 198 198 200 201 205 209 215 218 221 222 224 226 229 233 236 240 244 246 244 241 244 251 258 262 263 261 259 256 253 250 249 249 255 265 278 288 294 299 302 304 306 308 312 315 319 324 328 332 337 341 344 347 348 350 351 353 354
196 197 199 200 200 200 200 200 200 199 198 197 198 199 201 204 208 211 215 218 221 224 225 226 228 231 234 237 242 245 243 239 240 243 248 252 254 253 251 247 244 241 241 247 259 273 286 293 298 301 302 304 307 310 314 319 325 330 336 341 345 347 348 349 350 351 353 354 356
196 198 199 200 200 201 201 200 199 198 197 198 200 201 204 207 210 213 216 219 222 225 226 225 227 229 231 234 239 241 240 236 235 237 240 244 246 245 243 239 235 235 240 252 268 282 290 296 297 299 301 304 307 312 318 325 332 339 345 349 352 353 352 351 351 352 354 356 357
197 198 199 201 201 201 201 200 199 199 200 202 204 205 207 210 213 215 217 220 223 225 225 224 225 227 229 232 235 237 235 231 230 231 234 238 239 237 233 230 230 235 247 262 276 287 292 294 295 296 299 303 308 316 324 332 340 348 353 357 358 357 356 353 352 352 354 357 359
197 198 200 201 202 201 201 201 201 201 203 206 207 209 211 212 215 217 219 222 225 226 225 224 224 226 228 230 232 233 230 226 223 224 227 230 231 229 226 227 233 244 259 272 282 288 291 290 290 293 297 304 312 321 331 340 349 356 1 3 3 1 358 356 354 354 356 359 1
197 199 200 201 202 201 202 202 203 205 207 209 211 212 213 215 217 219 221 224 226 227 225 223 223 225 227 229 229 228 225 221 219 218 219 220 220 221 224 230 242 255 269 278 284 287 286 285 287 291 298 306 316 327 338 349 357 4 8 9 6 3 0 358 358 359 0 2 3
198 200 201 201 201 202 203 204 205 207 209 212 213 214 215 216 219 221 223 225 227 227 226 224 223 224 225 225 223 221 218 216 214 213 212 212 214 218 227 238 252 265 274 281 284 284 282 282 286 293 300 310 323 336 347 357 5 11 13 12 9 6 4 3 3 4 5 6 6
200 201 202 202 202 203 204 206 207 209 211 213 214 215 216 217 220 222 223 224 225 226 226 225 224 223 222 221 218 215 212 209 208 208 208 208 213 221 233 246 258 268 276 281 283 281 281 283 288 294 305 317 334 347 357 6 14 18 17 15 12 9 8 7 8 9 9 9 9
202 203 203 204 204 204 205 207 209 211 212 213 214 215 216 217 219 221 222 222 222 222 222 222 221 220 218 215 213 210 207 205 204 203 204 208 215 226 239 251 261 268 274 278 278 278 280 283 287 293 309 330 349 359 8 17 22 24 22 19 15 13 12 12 13 13 12 11 11
203 204 204 205 205 205 206 207 209 210 212 213 213 214 215 217 218 219 220 220 219 218 217 216 215 214 212 210 208 205 203 201 200 201 204 211 220 232 243 253 261 266 271 273 274 275 277 276 276 285 324 355 7 15 21 29 32 31 28 24 20 17 17 17 17 16 15 13 13
203 204 205 205 205 205 206 207 208 209 210 211 212 213 214 216 216 216 215 215 215 215 214 213 211 210 209 207 204 200 198 197 198 202 208 217 226 236 246 254 258 262 265 268 269 269 266 255 239 240 18 24 27 28 35 38 40 38 34 30 26 23 22 22 21 19 17 15 14
202 203 203 204 204 204 204 205 206 207 208 209 211 212 213 214 213 212 211 210 209 209 209 209 207 206 205 203 200 197 195 196 200 206 214 222 231 239 248 253 255 258 261 263 261 257 244 214 186 108 46 44 41 40 41 42 43 41 39 35 31 28 26 26 25 22 19 17 16
200 201 201 202 202 203 203 203 204 205 206 208 209 210 211 211 211 210 209 207 206 204 203 202 200 199 197 195 194 194 196 199 204 211 219 226 234 241 247 251 251 254 255 254 250 240 216 192 155 77 57 54 49 46 44 43 42 42 39 37 34 31 29 28 26 24 21 19 18
197 198 199 199 200 201 202 202 203 204 205 206 207 207 207 207 208 208 209 208 206 203 200 198 195 193 192 191 191 193 197 202 208 215 222 228 235 242 246 247 247 247 249 245 238 223 202 183 134 83 66 63 55 49 46 44 43 41 39 39 37 34 31 30 29 26 23 20 20
196 196 197 197 198 199 200 201 202 203 204 204 205 205 204 204 204 206 207 208 206 203 199 197 193 191 190 190 192 194 199 204 210 216 223 229 235 240 243 243 240 239 238 235 225 211 196 172 122 87 76 71 63 55 50 47 45 43 41 40 38 36 33 32 31 29 25 22 22
195 196 196 197 197 198 199 200 201 202 202 202 203 203 204 204 204 205 206 206 205 202 199 195 192 189 189 191 194 198 201 206 210 216 222 228 233 237 239 238 232 229 227 224 213 203 191 168 126 97 86 81 71 63 56 52 50 46 43 42 39 37 35 34 33 31 28 25 23
194 195 197 197 197 197 198 199 200 201 201 201 201 202 203 204 204 204 204 203 202 200 197 194 191 189 190 192 196 199 203 206 211 216 220 225 230 233 233 229 224 221 220 215 206 195 183 162 135 112 97 89 77 67 62 58 55 50 46 43 41 38 36 35 34 32 30 27 24
194 195 197 198 198 198 198 199 200 200 201 201 201 202 202 202 203 202 201 198 196 195 195 193 191 191 192 194 197 201 204 208 212 216 220 223 227 229 226 220 216 215 213 209 199 191 178 163 141 124 112 96 84 73 67 62 58 53 49 45 42 40 37 36 34 32 31 29 26
195 195 197 198 199 199 199 199 199 200 201 202 202 203 203 202 202 201 198 195 192 190 190 191 191 192 193 195 198 202 206 210 213 217 219 222 223 223 220 213 209 209 207 203 194 186 176 164 152 140 123 107 94 82 70 64 61 55 50 46 43 41 38 36 34 33 31 29 27